Temperature
22 21 21 20 20 20 20 20 20 20 20 20 20 20 21 20 20 20 19 19 19 19 19 19 19 19 19 19 19 19 19 19 19 19 19 19 18 18 17 17 17 17 18
22 21 22 21 20 20 20 20 20 20 20 20 21 21 21 21 20 20 20 20 19 19 19 19 19 19 19 19 20 20 20 19 19 19 19 19 19 19 18 18 17 17 18
22 22 22 21 21 20 20 20 20 20 20 21 21 21 21 21 21 20 20 20 20 20 20 20 20 20 20 20 20 20 20 20 20 19 19 17 18 19 19 18 18 18 18
22 22 22 22 21 21 20 20 20 21 21 21 21 21 21 21 20 20 20 20 20 20 20 20 20 20 20 20 20 20 20 20 20 19 18 18 18 19 19 19 18 18 18
22 22 23 22 22 21 21 21 21 21 21 21 21 21 21 20 20 20 20 20 20 20 20 20 20 20 20 20 20 19 19 19 19 19 18 18 17 18 19 19 19 18 18
22 21 22 22 22 22 21 21 21 21 21 21 21 21 20 20 20 20 20 20 20 20 19 19 19 19 19 19 19 19 19 19 19 18 18 17 17 18 18 18 18 18 18
22 21 22 22 22 22 21 21 21 21 21 21 21 21 20 20 20 20 20 20 20 19 19 19 19 19 19 18 18 18 18 18 18 18 18 17 17 17 18 18 18 18 18
22 21 21 22 22 21 21 21 21 21 21 20 20 20 20 20 20 20 20 20 19 19 19 19 19 19 18 18 18 18 18 18 17 17 17 17 17 17 18 18 18 17 17
22 21 21 21 21 21 21 21 21 20 20 20 20 20 20 20 20 20 20 20 19 19 19 19 19 19 19 18 18 18 18 18 17 17 18 17 17 18 18 18 18 17 17
22 21 20 20 20 20 20 20 20 20 20 20 20 20 20 20 20 20 20 19 19 19 19 19 19 19 19 19 18 18 18 18 17 18 18 18 17 18 18 18 18 18 17
21 21 21 21 20 19 19 19 20 20 20 20 19 19 20 19 18 18 19 19 19 19 19 19 19 19 19 18 19 19 18 17 18 18 18 18 18 18 18 18 18 18 18
21 21 21 21 20 19 19 19 19 19 19 19 18 18 19 18 18 19 19 19 19 19 19 19 19 19 19 18 18 18 18 18 18 18 18 18 18 18 18 18 18 18 18
22 21 21 20 20 20 19 19 19 19 19 18 18 18 19 19 18 18 18 19 19 19 19 18 18 18 18 18 18 18 18 18 18 19 19 18 18 18 18 18 18 18 18
22 22 21 21 21 21 20 19 19 19 19 19 18 18 18 18 18 18 18 18 18 18 18 18 18 18 18 18 18 18 18 18 18 19 19 18 18 18 18 18 18 18 18
22 22 21 21 21 22 22 21 20 20 19 19 19 18 18 18 18 18 18 18 18 18 18 18 18 18 18 18 18 18 18 18 18 18 19 19 19 19 18 18 18 18 18
22 22 21 22 21 22 22 21 21 20 20 19 19 18 18 18 18 18 18 18 18 18 18 18 18 18 18 18 18 18 18 18 18 18 18 19 19 19 19 19 18 18 18
23 22 21 21 21 21 21 21 20 20 19 19 19 18 18 18 18 18 18 18 18 18 18 18 18 18 18 18 18 18 18 18 18 18 18 18 19 19 19 19 19 18 18
23 22 22 21 21 21 21 20 19 19 19 19 18 18 18 18 17 18 17 17 18 18 18 18 18 18 18 18 18 18 18 18 18 18 18 18 19 19 19 19 19 19 19
22 22 21 21 21 21 20 20 20 19 19 19 18 18 17 17 17 17 17 17 17 17 17 17 17 17 17 18 18 18 18 18 18 18 18 18 18 18 19 19 19 19 19
22 22 21 21 21 21 20 20 20 19 19 19 18 18 17 17 16 16 16 16 16 16 16 16 16 17 17 17 17 17 17 18 18 18 18 18 18 18 19 18 18 19 19
22 22 22 21 21 21 20 20 20 20 19 19 18 17 17 16 16 16 16 16 16 16 16 16 16 16 16 17 17 17 17 18 18 18 18 18 19 19 18 18 18 18 19
22 22 22 22 21 21 21 20 20 20 19 18 18 17 17 16 16 16 15 16 15 15 16 15 15 15 16 16 16 17 18 19 19 19 18 18 18 19 19 18 18 18 18
21 21 21 21 21 21 20 20 20 19 19 18 18 17 16 16 16 16 16 15 15 15 15 15 15 15 15 16 16 16 17 19 20 20 19 19 18 18 19 19 18 18 18
21 21 21 20 21 21 20 20 19 19 19 18 18 17 16 16 16 16 15 15 15 15 14 15 14 14 14 15 16 16 16 17 18 19 20 19 18 18 18 18 19 18 18
20 20 20 20 20 20 20 20 19 19 18 18 17 17 17 15 15 15 15 15 15 14 14 15 15 14 14 14 15 15 16 16 16 16 18 19 19 18 18 17 17 18 18
19 19 19 19 20 19 19 19 19 18 18 18 17 17 16 16 15 14 14 14 14 14 14 14 14 14 14 14 14 14 15 15 16 16 17 17 18 18 18 17 17 17 17
Wind_Speed
13 18 21 17 15 14 15 16 16 17 17 16 15 15 14 13 12 11 11 10 9 9 9 9 8 8 8 9 9 10 10 9 9 9 9 8 7 7 8 7 6 9 11
16 19 21 17 16 15 15 15 16 16 16 16 15 14 13 12 12 11 10 9 9 8 8 8 7 7 7 8 8 9 9 9 8 8 9 9 7 6 6 4 2 9 9
18 20 21 18 16 15 15 15 15 15 15 15 14 13 12 12 11 10 9 8 8 7 7 6 6 6 6 6 7 7 8 8 7 7 8 8 9 7 6 5 2 7 7
18 19 19 19 17 16 15 15 15 15 14 14 13 12 12 11 10 10 9 8 7 7 6 5 5 5 5 5 5 6 6 7 7 7 8 5 7 11 7 6 6 7 7
17 17 19 20 17 16 15 15 14 14 13 13 12 12 11 10 10 9 8 7 6 6 5 5 5 5 5 4 5 5 5 6 6 10 5 4 4 11 8 8 8 8 9
17 17 19 20 18 17 16 15 14 13 13 12 12 11 11 10 9 9 8 7 6 6 6 6 6 5 6 5 5 5 6 6 8 11 7 7 7 10 8 10 11 11 11
16 15 19 19 18 16 16 15 14 13 13 12 12 11 11 10 10 9 8 8 8 7 7 7 7 7 7 8 8 8 8 8 12 11 8 10 7 10 9 11 13 14 14
15 15 17 18 16 15 15 14 13 13 12 12 12 12 11 11 10 10 9 9 9 9 9 9 9 9 9 9 9 10 10 12 13 13 12 12 8 8 10 12 14 15 17
14 13 14 17 16 14 13 13 12 12 12 12 12 12 11 11 11 11 11 11 11 11 12 11 11 11 11 11 12 12 12 13 14 13 12 11 10 11 12 14 15 16 17
12 12 12 14 14 14 14 14 12 12 12 12 12 12 12 12 13 13 13 15 14 13 13 13 13 13 13 14 14 14 14 14 16 16 13 11 13 13 14 15 16 17 17
11 11 12 12 12 12 12 13 14 13 13 13 14 15 13 13 14 13 16 12 13 14 14 14 15 15 15 16 17 17 15 14 15 14 12 8 14 14 16 17 18 18 19
13 12 11 11 10 10 9 9 10 12 12 13 12 12 12 12 11 11 5 9 13 15 16 17 17 16 17 14 16 18 13 15 15 13 12 12 15 16 18 19 19 19 20
13 12 12 11 10 10 8 7 7 8 8 10 12 11 11 10 10 11 10 10 13 15 15 15 16 15 14 11 10 11 13 13 11 12 12 15 17 18 19 19 19 20 20
12 12 11 11 10 9 8 7 7 7 7 8 9 11 10 8 8 9 9 10 10 10 10 10 9 12 12 13 13 14 14 12 12 11 10 11 16 18 19 20 20 20 20
11 11 11 10 10 9 8 7 7 7 8 8 8 9 10 9 10 10 8 10 12 12 10 10 10 11 11 12 13 14 15 14 14 14 11 12 17 18 19 19 19 19 19
11 11 10 11 10 9 8 8 7 7 7 9 8 10 11 10 9 10 11 11 11 12 12 11 12 11 11 11 13 14 14 15 14 14 15 14 17 19 20 20 20 19 19
11 10 10 10 10 10 10 9 7 7 7 7 7 9 10 11 11 10 11 11 11 13 13 12 12 11 12 12 14 14 14 15 16 15 16 15 14 17 22 22 21 20 20
9 9 9 9 9 9 8 7 6 5 5 6 7 8 9 10 11 10 10 11 11 11 11 11 11 11 12 12 12 13 13 12 16 16 16 16 15 15 17 22 22 21 20
8 8 9 8 8 7 6 5 5 4 5 5 6 7 8 9 10 10 10 10 11 11 11 12 11 11 12 13 13 13 14 14 15 16 17 17 17 16 17 16 20 21 21
8 8 7 8 7 6 5 4 3 3 4 4 5 5 8 8 9 10 10 11 12 12 11 11 13 12 12 13 14 15 14 14 15 16 17 16 15 18 19 18 16 17 23
8 8 7 7 7 6 4 4 3 3 3 4 5 5 7 8 9 8 10 10 10 11 12 14 13 14 14 12 12 14 15 17 18 16 16 16 18 18 18 17 16 16 14
7 7 7 7 7 6 5 4 3 3 4 4 5 4 6 7 8 8 9 10 10 10 12 13 13 13 13 11 11 12 13 14 15 17 16 17 18 16 17 19 18 16 16
5 5 4 4 5 7 6 6 4 4 5 5 5 5 5 7 8 8 9 10 10 11 11 12 12 14 14 13 13 12 12 13 12 12 15 15 15 15 16 16 17 17 17
2 2 3 5 6 7 8 8 8 6 6 5 5 6 6 7 7 8 8 9 10 10 11 12 13 12 14 14 13 14 16 16 14 13 12 13 14 15 16 14 15 15 15
3 4 5 6 7 8 9 9 8 9 7 6 5 6 7 7 6 7 8 9 10 10 11 12 13 13 12 14 14 14 15 15 17 15 15 13 12 13 13 14 13 12 12
7 6 7 7 8 8 9 9 9 9 8 8 8 8 8 7 6 7 8 9 10 11 11 12 13 14 14 15 14 14 14 14 14 14 16 15 14 12 10 8 8 8 8
Wind_Direction
155 145 147 155 152 144 137 134 134 135 135 134 134 135 136 134 131 127 123 118 114 112 111 111 109 106 105 107 111 114 117 118 118 119 116 111 107 109 116 128 166 132 121
148 146 149 156 154 148 141 137 136 136 136 136 137 138 139 138 136 133 130 127 123 119 116 117 117 114 112 113 116 120 124 129 132 133 136 134 126 120 125 144 293 111 139
146 146 154 158 157 152 146 142 141 141 141 141 142 142 143 142 141 140 138 135 132 128 127 126 128 128 128 129 131 134 138 142 147 152 185 166 140 147 150 155 128 129 155
148 150 158 157 160 157 153 150 149 148 148 148 148 148 149 148 148 149 148 146 144 142 142 144 146 146 147 149 152 154 157 162 168 189 209 159 153 149 173 176 175 171 175
148 151 152 160 163 161 159 158 157 156 156 156 156 157 158 158 159 160 161 163 166 166 167 171 173 172 172 173 175 177 181 187 195 228 220 201 175 144 183 192 192 192 192
152 157 154 165 167 166 165 165 166 166 166 166 166 167 168 169 172 174 177 183 189 194 197 200 202 201 199 200 203 206 209 213 226 230 217 223 210 157 193 204 201 203 203
157 158 156 168 170 171 171 172 174 176 177 178 178 179 181 184 187 192 196 202 208 214 219 222 223 222 218 216 217 219 223 228 247 253 237 234 225 159 205 222 215 212 210
159 162 154 167 173 176 178 180 183 186 188 189 191 192 194 198 204 210 214 218 221 224 227 230 231 232 231 229 228 228 228 238 244 246 241 241 206 177 222 237 233 226 219
162 162 160 170 176 181 185 189 192 196 199 202 205 206 209 213 217 222 226 229 230 230 231 232 232 233 233 233 233 234 235 238 257 256 246 239 187 197 228 241 243 242 237
166 170 170 177 177 185 189 193 201 206 210 214 217 220 222 226 228 229 233 228 233 238 239 239 238 237 237 236 235 235 236 237 246 250 242 227 179 203 228 239 243 245 247
174 180 182 181 181 193 199 187 197 209 215 220 223 222 229 239 240 226 231 221 230 242 246 246 246 244 243 239 234 234 235 242 245 250 250 200 177 210 230 238 240 242 245
180 186 188 195 184 199 206 195 212 217 213 222 235 232 233 245 258 263 247 219 240 247 250 248 248 248 245 247 231 221 237 240 250 249 241 192 195 219 233 238 240 241 242
183 188 191 194 193 203 209 218 220 230 229 231 238 245 252 262 260 258 257 234 233 238 245 241 238 242 244 244 253 239 243 253 251 253 245 190 203 222 235 239 240 241 242
187 190 194 190 197 208 218 222 230 238 240 246 243 247 253 255 262 265 265 269 265 255 252 257 256 253 254 254 249 253 251 246 251 256 257 203 212 225 237 241 241 241 241
190 195 196 196 198 201 210 228 233 244 253 250 257 255 259 261 264 268 270 268 270 271 264 256 259 263 258 256 255 253 254 255 251 250 252 223 221 228 237 243 243 243 242
197 199 195 199 200 202 207 217 232 246 248 264 262 264 268 270 273 276 274 271 270 269 268 267 264 262 260 258 257 257 258 258 254 251 252 243 222 225 233 241 244 244 243
201 201 199 201 204 206 215 222 233 244 253 264 273 276 276 277 279 279 280 277 273 273 272 267 264 261 258 254 253 255 255 254 255 251 250 252 246 229 227 233 239 242 243
205 197 200 205 205 206 215 228 245 262 276 281 286 288 290 293 291 289 283 282 285 280 274 268 262 260 258 258 258 256 254 253 253 251 247 244 246 250 238 227 230 235 239
198 195 196 201 202 202 204 218 240 256 270 282 290 296 306 301 299 294 291 290 288 282 277 274 271 264 263 260 259 255 253 251 251 251 247 246 243 243 249 240 224 227 234
177 178 185 182 185 185 190 199 230 250 266 278 293 301 301 300 302 302 294 293 293 287 282 277 276 269 264 264 265 264 259 255 252 249 246 244 243 242 243 246 241 230 225
161 162 170 167 165 175 182 199 214 240 267 284 291 305 300 303 306 299 296 301 291 288 289 288 283 276 268 264 265 265 260 253 249 248 245 246 242 239 241 243 245 248 237
157 156 167 170 172 187 186 204 225 264 273 293 298 298 296 303 304 299 301 297 295 294 286 282 280 279 276 266 260 267 268 259 244 241 240 238 243 242 239 237 237 239 247
165 168 178 187 187 203 202 210 210 228 249 261 283 288 298 303 302 302 299 295 297 290 286 286 284 276 275 272 260 258 265 267 268 250 235 238 241 242 243 242 237 237 238
214 206 229 233 221 218 217 226 233 252 273 296 297 301 302 293 297 299 296 295 293 291 289 284 280 279 275 272 266 254 255 268 274 271 251 236 234 239 245 246 243 237 235
315 291 268 256 244 233 231 233 237 249 263 277 288 290 291 294 290 293 296 294 292 289 289 287 285 277 272 269 270 267 261 257 254 257 261 257 242 234 234 238 242 245 242
341 313 287 271 260 250 242 242 243 254 263 275 280 290 290 294 293 294 294 292 290 290 289 286 282 276 270 268 267 265 261 257 252 248 249 250 251 246 237 237 242 244 244
Height
1523 1524 1524 1527 1530 1533 1535 1538 1540 1542 1544 1545 1546 1547 1548 1549 1550 1550 1551 1552 1553 1554 1555 1555 1556 1556 1557 1557 1557 1557 1557 1557 1557 1558 1558 1558 1558 1558 1558 1559 1559 1560 1560
1523 1523 1525 1528 1531 1534 1537 1539 1541 1543 1545 1546 1548 1549 1550 1551 1552 1552 1553 1554 1555 1555 1556 1557 1557 1558 1558 1558 1559 1559 1559 1559 1559 1559 1559 1560 1560 1560 1560 1560 1561 1563 1562
1523 1524 1526 1529 1532 1535 1538 1540 1543 1544 1546 1548 1549 1550 1551 1552 1553 1554 1555 1555 1556 1557 1557 1558 1558 1559 1559 1559 1560 1560 1560 1560 1560 1561 1561 1563 1562 1561 1561 1562 1562 1563 1563
1524 1525 1527 1530 1533 1536 1539 1541 1543 1545 1547 1548 1550 1551 1552 1553 1554 1554 1555 1556 1557 1557 1558 1558 1559 1559 1559 1560 1560 1560 1561 1561 1561 1562 1564 1566 1565 1563 1562 1563 1563 1564 1564
1525 1527 1528 1531 1534 1537 1539 1542 1544 1546 1547 1549 1550 1551 1552 1553 1554 1555 1555 1556 1556 1557 1558 1558 1558 1559 1559 1559 1560 1560 1561 1561 1561 1562 1565 1565 1565 1563 1563 1563 1563 1564 1565
1525 1528 1529 1532 1534 1537 1540 1542 1544 1546 1547 1549 1550 1551 1552 1553 1553 1554 1555 1555 1556 1556 1556 1557 1557 1557 1558 1558 1559 1559 1560 1560 1561 1563 1565 1564 1565 1563 1563 1563 1563 1564 1564
1528 1530 1530 1532 1535 1538 1540 1542 1544 1546 1547 1549 1550 1551 1552 1552 1553 1553 1554 1554 1554 1555 1555 1555 1556 1556 1556 1556 1557 1557 1558 1558 1559 1563 1563 1563 1563 1561 1562 1562 1562 1563 1564
1529 1532 1531 1533 1535 1538 1540 1542 1544 1546 1547 1548 1549 1550 1551 1551 1552 1552 1553 1553 1553 1553 1553 1553 1553 1554 1554 1554 1554 1555 1555 1556 1558 1560 1560 1560 1559 1559 1559 1560 1561 1561 1562
1531 1533 1533 1534 1536 1538 1540 1542 1544 1545 1547 1548 1549 1549 1550 1551 1551 1551 1551 1551 1551 1551 1551 1551 1551 1551 1552 1552 1552 1552 1553 1553 1553 1557 1557 1557 1555 1555 1556 1557 1558 1559 1559
1531 1533 1534 1536 1537 1539 1540 1542 1544 1545 1546 1547 1548 1548 1549 1549 1549 1549 1549 1549 1549 1549 1549 1549 1549 1549 1549 1549 1549 1550 1550 1549 1550 1553 1554 1553 1551 1552 1552 1553 1554 1555 1556
1530 1533 1535 1537 1538 1540 1542 1542 1543 1544 1545 1545 1546 1546 1547 1548 1549 1548 1547 1547 1546 1546 1546 1546 1546 1546 1546 1546 1546 1546 1546 1547 1549 1550 1550 1549 1547 1548 1548 1549 1549 1550 1551
1529 1531 1533 1536 1537 1539 1541 1542 1542 1544 1544 1544 1546 1546 1546 1546 1547 1547 1546 1544 1544 1543 1543 1543 1543 1542 1542 1543 1543 1543 1543 1543 1545 1545 1545 1543 1543 1544 1544 1544 1545 1546 1547
1528 1530 1532 1533 1535 1537 1539 1541 1542 1543 1543 1543 1543 1543 1543 1543 1543 1543 1543 1542 1540 1540 1540 1540 1539 1539 1539 1540 1540 1540 1539 1540 1540 1541 1541 1538 1538 1539 1539 1540 1540 1541 1542
1527 1529 1531 1532 1533 1534 1536 1538 1539 1540 1541 1541 1541 1540 1540 1540 1539 1539 1539 1539 1538 1537 1536 1536 1536 1536 1535 1535 1535 1535 1535 1535 1535 1535 1535 1534 1534 1534 1535 1535 1536 1537 1538
1526 1528 1529 1530 1531 1532 1534 1535 1536 1537 1539 1538 1537 1537 1536 1536 1536 1536 1534 1533 1533 1532 1532 1531 1530 1530 1529 1529 1530 1529 1529 1530 1530 1530 1529 1528 1529 1529 1530 1531 1532 1532 1533
1524 1526 1528 1528 1529 1531 1532 1533 1534 1535 1535 1535 1535 1535 1533 1532 1531 1531 1529 1528 1527 1526 1526 1525 1525 1524 1524 1523 1523 1523 1523 1523 1523 1523 1523 1524 1523 1524 1525 1526 1527 1528 1529
1523 1525 1525 1526 1528 1529 1530 1531 1532 1533 1533 1533 1532 1531 1530 1529 1528 1526 1524 1523 1522 1521 1520 1519 1518 1518 1517 1517 1517 1516 1516 1516 1516 1516 1517 1517 1518 1518 1519 1520 1521 1522 1523
1522 1522 1523 1525 1526 1527 1528 1530 1531 1531 1531 1531 1530 1529 1527 1525 1524 1522 1520 1518 1517 1515 1514 1513 1512 1512 1511 1511 1510 1510 1510 1509 1509 1510 1510 1510 1511 1512 1513 1513 1515 1516 1517
1518 1519 1521 1522 1524 1525 1526 1528 1529 1529 1528 1528 1528 1527 1524 1522 1520 1518 1516 1514 1512 1510 1509 1508 1507 1506 1505 1504 1504 1503 1503 1502 1503 1503 1502 1503 1504 1504 1506 1507 1507 1508 1510
1516 1517 1519 1520 1522 1523 1525 1526 1527 1527 1527 1526 1525 1523 1520 1518 1516 1513 1512 1510 1508 1506 1505 1503 1501 1500 1499 1498 1498 1497 1496 1495 1495 1495 1495 1496 1496 1497 1499 1500 1501 1502 1502
1514 1516 1518 1519 1520 1522 1524 1525 1526 1526 1525 1524 1522 1519 1516 1514 1511 1509 1507 1505 1503 1502 1500 1498 1497 1495 1493 1493 1491 1489 1488 1488 1487 1487 1487 1488 1489 1490 1491 1493 1494 1495 1496
1514 1516 1517 1518 1520 1521 1522 1523 1523 1523 1522 1521 1518 1515 1512 1510 1507 1506 1503 1501 1499 1496 1494 1492 1491 1489 1488 1488 1487 1484 1482 1481 1479 1479 1479 1480 1481 1482 1483 1485 1486 1487 1488
1514 1515 1517 1518 1519 1519 1520 1520 1520 1519 1518 1518 1516 1513 1509 1506 1503 1501 1499 1496 1494 1492 1490 1487 1485 1484 1482 1481 1481 1480 1477 1473 1472 1472 1472 1472 1473 1475 1476 1478 1478 1479 1480
1514 1514 1515 1516 1516 1517 1517 1518 1518 1517 1516 1515 1512 1510 1506 1503 1500 1497 1495 1492 1490 1488 1485 1483 1481 1478 1476 1475 1474 1473 1472 1470 1469 1467 1466 1466 1466 1467 1468 1470 1471 1472 1473
1513 1514 1514 1514 1514 1514 1514 1514 1514 1513 1513 1511 1508 1506 1502 1500 1497 1494 1491 1489 1486 1483 1480 1477 1475 1472 1470 1468 1467 1466 1465 1463 1463 1462 1460 1460 1460 1460 1461 1462 1464 1465 1466
1511 1511 1511 1511 1510 1510 1510 1509 1509 1509 1508 1506 1504 1502 1500 1498 1495 1492 1488 1485 1482 1479 1476 1473 1469 1466 1463 1461 1460 1458 1458 1456 1455 1455 1454 1454 1454 1455 1455 1455 1457 1457 1458